This is the latest recevied weather packets stored in our database for station/object LW9ERO-3. If no packets are shown the sender has not sent any weather packets the latest 10 day(s).
| Time | Temp. | Humidity | Pressure | Rain* | Wind** | Luminosity | Snow |
|---|---|---|---|---|---|---|---|
| 1788023344 | 21.67° C | 34% | 1013.7 hPa | 0 mm | - | - | - |
| 1788022803 | 21.11° C | 35% | 1013.9 hPa | 0 mm | - | - | - |
| 1788022444 | 21.67° C | 34% | 1014 hPa | 0 mm | - | - | - |
| 1788021903 | 21.67° C | 35% | 1014.2 hPa | 0 mm | - | - | - |
| 1788021364 | 21.11° C | 36% | 1014.1 hPa | 0 mm | - | - | - |
| 1788020824 | 21.11° C | 35% | 1014.2 hPa | 0 mm | - | - | - |
| 1788020284 | 21.11° C | 36% | 1014.3 hPa | 0 mm | - | - | - |
| 1788019743 | 21.11° C | 37% | 1014.3 hPa | 0 mm | - | - | - |
| 1788019203 | 20.56° C | 39% | 1014.2 hPa | 0 mm | - | - | - |
| 1788018843 | 20.56° C | 40% | 1014.5 hPa | 0 mm | - | - | - |
| 1788018303 | 20.56° C | 39% | 1014.4 hPa | 0 mm | - | - | - |
| 1788017763 | 20.56° C | 39% | 1014.4 hPa | 0 mm | - | - | - |
| 1788017223 | 20° C | 42% | 1014.5 hPa | 0 mm | - | - | - |
| 1788016684 | 20° C | 42% | 1014.4 hPa | 0 mm | - | - | - |
| 1788016143 | 20° C | 41% | 1014.5 hPa | 0 mm | - | - | - |
| 1788015605 | 20° C | 42% | 1014.5 hPa | 0 mm | - | - | - |
| 1788015244 | 20° C | 41% | 1014.4 hPa | 0 mm | - | - | - |
| 1788014703 | 20° C | 39% | 1014.5 hPa | 0 mm | - | - | - |
| 1788014164 | 20° C | 42% | 1014.3 hPa | 0 mm | - | - | - |
| 1788013623 | 19.44° C | 41% | 1014.6 hPa | 0 mm | - | - | - |
| 1788013084 | 19.44° C | 41% | 1014.8 hPa | 0 mm | - | - | - |
| 1788012543 | 19.44° C | 41% | 1014.9 hPa | 0 mm | - | - | - |
| 1788012003 | 19.44° C | 41% | 1014.8 hPa | 0 mm | - | - | - |
| 1788011644 | 19.44° C | 43% | 1014.8 hPa | 0 mm | - | - | - |
| 1788011104 | 18.33° C | 44% | 1014.8 hPa | 0 mm | - | - | - |
* Rain latest hour (hover to see other rain measurements)
** Current wind speed in m/s (hover to see current wind gust speed)